| time (UTC) | temp F | wind direction | speed MPH | gust MPH | rain 1hr in | rain 24hr in | rain mn in | humidity % | barometer mb |
| 20260504000025 | 64 | 296 | 0.0 | 0.0 | 0.00 | 0.00 | 0.00 | 39 | 1017.9 |
| 20260503235509 | 64 | 296 | 0.0 | 1.0 | 0.00 | 0.00 | 0.00 | 40 | 1018.0 |
| 20260503235003 | 65 | 296 | 0.0 | 4.0 | 0.00 | 0.00 | 0.00 | 41 | 1018.0 |
| 20260503234521 | 65 | 275 | 0.0 | 4.0 | 0.00 | 0.00 | 0.00 | 37 | 1018.0 |
| 20260503234012 | 65 | 5 | 1.0 | 3.0 | 0.00 | 0.00 | 0.00 | 38 | 1018.1 |
| 20260503233505 | 66 | 287 | 0.0 | 2.0 | 0.00 | 0.00 | 0.00 | 39 | 1018.1 |
| 20260503233018 | 66 | 330 | 0.0 | 1.0 | 0.00 | 0.00 | 0.00 | 39 | 1018.1 |
| 20260503232013 | 66 | 347 | 0.0 | 2.0 | 0.00 | 0.00 | 0.00 | 38 | 1018.1 |
| 20260503231516 | 66 | 303 | 0.0 | 4.0 | 0.00 | 0.00 | 0.00 | 37 | 1018.3 |
| 20260503231010 | 66 | 318 | 0.0 | 4.0 | 0.00 | 0.00 | 0.00 | 38 | 1018.2 |
| 20260503230511 | 66 | 342 | 0.0 | 2.0 | 0.00 | 0.00 | 0.00 | 37 | 1018.2 |
| 20260503230028 | 66 | 332 | 0.0 | 3.0 | 0.00 | 0.00 | 0.00 | 38 | 1018.3 |
| 20260503225008 | 66 | 292 | 0.0 | 2.0 | 0.00 | 0.00 | 0.00 | 38 | 1018.3 |
| 20260503224527 | 66 | 93 | 0.0 | 4.0 | 0.00 | 0.00 | 0.00 | 37 | 1018.4 |
| 20260503223504 | 67 | 225 | 1.0 | 6.0 | 0.00 | 0.00 | 0.00 | 38 | 1018.3 |
| 20260503223025 | 67 | 257 | 0.0 | 4.0 | 0.00 | 0.00 | 0.00 | 37 | 1018.4 |
| 20260503222509 | 67 | 263 | 1.0 | 6.0 | 0.00 | 0.00 | 0.00 | 40 | 1018.4 |
| 20260503222006 | 67 | 277 | 0.0 | 6.0 | 0.00 | 0.00 | 0.00 | 40 | 1018.5 |
| 20260503221521 | 67 | 286 | 0.0 | 3.0 | 0.00 | 0.00 | 0.00 | 38 | 1018.5 |
| 20260503221012 | 67 | 62 | 1.0 | 4.0 | 0.00 | 0.00 | 0.00 | 38 | 1018.6 |
| 20260503220505 | 67 | 240 | 0.0 | 4.0 | 0.00 | 0.00 | 0.00 | 40 | 1018.6 |
| 20260503220023 | 67 | 259 | 0.0 | 4.0 | 0.00 | 0.00 | 0.00 | 40 | 1018.6 |
| 20260503215506 | 67 | 34 | 2.0 | 4.0 | 0.00 | 0.00 | 0.00 | 39 | 1018.6 |
| 20260503215009 | 67 | 10 | 0.0 | 5.0 | 0.00 | 0.00 | 0.00 | 41 | 1018.6 |
| 20260503214515 | 67 | 255 | 1.0 | 5.0 | 0.00 | 0.00 | 0.00 | 40 | 1018.6 |
| 20260503214009 | 67 | 39 | 1.0 | 5.0 | 0.00 | 0.00 | 0.00 | 39 | 1018.8 |
| 20260503213503 | 67 | 297 | 2.0 | 5.0 | 0.00 | 0.00 | 0.00 | 37 | 1019.0 |
| 20260503213017 | 67 | 281 | 3.0 | 5.0 | 0.00 | 0.00 | 0.00 | 37 | 1019.1 |
| 20260503212506 | 67 | 65 | 0.0 | 5.0 | 0.00 | 0.00 | 0.00 | 39 | 1019.1 |
| 20260503212009 | 68 | 2 | 1.0 | 5.0 | 0.00 | 0.00 | 0.00 | 38 | 1019.2 |
| 20260503211510 | 68 | 333 | 2.0 | 5.0 | 0.00 | 0.00 | 0.00 | 37 | 1019.3 |
| 20260503211005 | 68 | 270 | 0.0 | 4.0 | 0.00 | 0.00 | 0.00 | 39 | 1019.2 |
| 20260503210506 | 68 | 17 | 1.0 | 4.0 | 0.00 | 0.00 | 0.00 | 38 | 1019.3 |
| 20260503210008 | 68 | 285 | 1.0 | 7.0 | 0.00 | 0.00 | 0.00 | 39 | 1019.2 |
| 20260503205504 | 68 | 303 | 2.0 | 7.0 | 0.00 | 0.00 | 0.00 | 37 | 1019.2 |
| 20260503205005 | 69 | 290 | 1.0 | 4.0 | 0.00 | 0.00 | 0.00 | 37 | 1019.2 |
| 20260503204528 | 69 | 249 | 0.0 | 3.0 | 0.00 | 0.00 | 0.00 | 36 | 1019.4 |
| 20260503204003 | 69 | 276 | 0.0 | 3.0 | 0.00 | 0.00 | 0.00 | 37 | 1019.4 |
| 20260503203506 | 69 | 65 | 0.0 | 2.0 | 0.00 | 0.00 | 0.00 | 38 | 1019.5 |
| 20260503203023 | 69 | 308 | 0.0 | 7.0 | 0.00 | 0.00 | 0.00 | 38 | 1019.6 |
| 20260503202504 | 68 | 215 | 2.0 | 7.0 | 0.00 | 0.00 | 0.00 | 38 | 1019.7 |
| 20260503202006 | 69 | 261 | 1.0 | 3.0 | 0.00 | 0.00 | 0.00 | 38 | 1019.8 |
| 20260503201520 | 68 | 266 | 1.0 | 4.0 | 0.00 | 0.00 | 0.00 | 41 | 1019.9 |
| 20260503201009 | 68 | 273 | 2.0 | 4.0 | 0.00 | 0.00 | 0.00 | 37 | 1020.1 |
| 20260503200502 | 68 | 267 | 0.0 | 4.0 | 0.00 | 0.00 | 0.00 | 38 | 1020.1 |
| 20260503200016 | 68 | 307 | 1.0 | 4.0 | 0.00 | 0.00 | 0.00 | 37 | 1020.2 |
| 20260503195509 | 68 | 46 | 1.0 | 4.0 | 0.00 | 0.00 | 0.00 | 41 | 1020.3 |
| 20260503195010 | 68 | 87 | 1.0 | 4.0 | 0.00 | 0.00 | 0.00 | 36 | 1020.3 |
| 20260503194512 | 68 | 70 | 1.0 | 2.0 | 0.00 | 0.00 | 0.00 | 37 | 1020.5 |
| 20260503194004 | 68 | 265 | 0.0 | 4.0 | 0.00 | 0.00 | 0.00 | 39 | 1020.6 |
| 20260503193510 | 68 | 337 | 1.0 | 4.0 | 0.00 | 0.00 | 0.00 | 36 | 1020.8 |
| 20260503193028 | 68 | 349 | 0.0 | 4.0 | 0.00 | 0.00 | 0.00 | 36 | 1020.8 |
| 20260503192504 | 68 | 347 | 1.0 | 4.0 | 0.00 | 0.00 | 0.00 | 36 | 1021.0 |
| 20260503192007 | 68 | 245 | 0.0 | 5.0 | 0.00 | 0.00 | 0.00 | 35 | 1021.1 |
| 20260503191524 | 67 | 308 | 1.0 | 7.0 | 0.00 | 0.00 | 0.00 | 37 | 1021.2 |
| 20260503191006 | 67 | 283 | 2.0 | 7.0 | 0.00 | 0.00 | 0.00 | 36 | 1021.3 |
| 20260503190505 | 67 | 261 | 0.0 | 5.0 | 0.00 | 0.00 | 0.00 | 36 | 1021.3 |
| 20260503190038 | 67 | 252 | 1.0 | 5.0 | 0.00 | 0.00 | 0.00 | 37 | 1021.4 |
| 20260503185504 | 67 | 120 | 1.0 | 4.0 | 0.00 | 0.00 | 0.00 | 41 | 1021.3 |
| 20260503185006 | 66 | 9 | 0.0 | 3.0 | 0.00 | 0.00 | 0.00 | 39 | 1021.3 |
| 20260503184524 | 66 | 99 | 0.0 | 6.0 | 0.00 | 0.00 | 0.00 | 42 | 1021.5 |
| 20260503184008 | 65 | 264 | 0.0 | 7.0 | 0.00 | 0.00 | 0.00 | 43 | 1021.5 |
| 20260503183503 | 65 | 159 | 2.0 | 7.0 | 0.00 | 0.00 | 0.00 | 42 | 1021.6 |
| 20260503183020 | 65 | 304 | 1.0 | 5.0 | 0.00 | 0.00 | 0.00 | 42 | 1021.6 |
| 20260503182509 | 65 | 89 | 1.0 | 5.0 | 0.00 | 0.00 | 0.00 | 43 | 1021.7 |
| 20260503182017 | 65 | 115 | 0.0 | 5.0 | 0.00 | 0.00 | 0.00 | 42 | 1021.8 |
| 20260503181517 | 65 | 115 | 1.0 | 5.0 | 0.00 | 0.00 | 0.00 | 48 | 1021.8 |
| 20260503181009 | 65 | 176 | 0.0 | 4.0 | 0.00 | 0.00 | 0.00 | 48 | 1021.8 |
| 20260503180508 | 65 | 112 | 1.0 | 6.0 | 0.00 | 0.00 | 0.00 | 43 | 1021.8 |
| 20260503180013 | 65 | 304 | 1.0 | 6.0 | 0.00 | 0.00 | 0.00 | 44 | 1021.8 |
| 20260503175505 | 65 | 53 | 0.0 | 3.0 | 0.00 | 0.00 | 0.00 | 42 | 1021.9 |
| 20260503175008 | 64 | 180 | 0.0 | 2.0 | 0.00 | 0.00 | 0.00 | 45 | 1021.9 |
| 20260503174535 | 64 | 50 | 1.0 | 3.0 | 0.00 | 0.00 | 0.00 | 44 | 1022.0 |
| 20260503174003 | 64 | 261 | 0.0 | 4.0 | 0.00 | 0.00 | 0.00 | 45 | 1022.1 |
| 20260503173507 | 63 | 314 | 2.0 | 4.0 | 0.00 | 0.00 | 0.00 | 46 | 1022.2 |
| 20260503173027 | 64 | 51 | 0.0 | 3.0 | 0.00 | 0.00 | 0.00 | 46 | 1022.2 |
| 20260503172503 | 63 | 240 | 0.0 | 5.0 | 0.00 | 0.00 | 0.00 | 48 | 1022.3 |
| 20260503172007 | 63 | 150 | 1.0 | 5.0 | 0.00 | 0.00 | 0.00 | 50 | 1022.4 |
| 20260503171522 | 62 | 299 | 0.0 | 4.0 | 0.00 | 0.00 | 0.00 | 50 | 1022.4 |
| 20260503171009 | 62 | 95 | 2.0 | 4.0 | 0.00 | 0.00 | 0.00 | 48 | 1022.5 |
| 20260503170506 | 61 | 122 | 0.0 | 4.0 | 0.00 | 0.00 | 0.00 | 48 | 1022.4 |
| 20260503151010 | 56 | 243 | 0.0 | 2.0 | 0.00 | 0.00 | 0.00 | 58 | 1022.9 |
| 20260503150510 | 56 | 255 | 0.0 | 2.0 | 0.00 | 0.00 | 0.00 | 60 | 1022.9 |
| 20260503131008 | 49 | 302 | 0.0 | 0.0 | 0.00 | 0.00 | 0.00 | 83 | 1022.6 |
| 20260503130508 | 49 | 290 | 0.0 | 0.0 | 0.00 | 0.00 | 0.00 | 84 | 1022.7 |
| 20260503110509 | 42 | 330 | 0.0 | 0.0 | 0.00 | 0.00 | 0.00 | 91 | 1021.7 |
| 20260503090508 | 45 | 286 | 0.0 | 1.0 | 0.00 | 0.00 | 0.00 | 88 | 1020.9 |
| 20260503081524 | 45 | 285 | 0.0 | 0.0 | 0.00 | 0.00 | 0.00 | 89 | 1021.0 |
| 20260503081006 | 45 | 285 | 0.0 | 0.0 | 0.00 | 0.00 | 0.00 | 90 | 1020.9 |
| 20260503080507 | 45 | 285 | 0.0 | 0.0 | 0.00 | 0.00 | 0.00 | 90 | 1020.9 |
| 20260503072505 | 45 | 285 | 0.0 | 0.0 | 0.00 | 0.00 | 0.00 | 87 | 1020.5 |
| 20260503072004 | 46 | 285 | 0.0 | 0.0 | 0.00 | 0.00 | 0.00 | 87 | 1020.5 |
| 20260503071532 | 46 | 285 | 0.0 | 0.0 | 0.00 | 0.00 | 0.00 | 87 | 1020.5 |
| 20260503071009 | 46 | 285 | 0.0 | 0.0 | 0.00 | 0.00 | 0.00 | 86 | 1020.6 |
| 20260503070504 | 46 | 285 | 0.0 | 0.0 | 0.00 | 0.00 | 0.00 | 85 | 1020.6 |
| 20260503055007 | 49 | 283 | 0.0 | 3.0 | 0.00 | 0.00 | 0.00 | 78 | 1020.1 |
| 20260503054530 | 49 | 283 | 0.0 | 1.0 | 0.00 | 0.00 | 0.00 | 78 | 1020.1 |
| 20260503054003 | 49 | 295 | 0.0 | 1.0 | 0.00 | 0.00 | 0.00 | 78 | 1020.1 |
| 20260503053504 | 50 | 273 | 0.0 | 1.0 | 0.00 | 0.00 | 0.00 | 78 | 1020.1 |
| 20260503052507 | 50 | 283 | 0.0 | 1.0 | 0.00 | 0.00 | 0.00 | 77 | 1020.1 |
| 20260503052007 | 50 | 306 | 0.0 | 0.0 | 0.00 | 0.00 | 0.00 | 77 | 1020.1 |
| 20260503051520 | 50 | 311 | 0.0 | 3.0 | 0.00 | 0.00 | 0.00 | 76 | 1020.1 |
| 20260503051008 | 51 | 338 | 0.0 | 3.0 | 0.00 | 0.00 | 0.00 | 75 | 1020.0 |
| 20260503050508 | 51 | 20 | 0.0 | 1.0 | 0.00 | 0.00 | 0.00 | 75 | 1020.0 |
| 20260503050015 | 51 | 274 | 0.0 | 1.0 | 0.00 | 0.00 | 0.00 | 74 | 1020.0 |
| 20260503045506 | 51 | 8 | 0.0 | 3.0 | 0.00 | 0.00 | 0.00 | 74 | 1020.0 |
| 20260503045008 | 51 | 288 | 0.0 | 3.0 | 0.00 | 0.00 | 0.00 | 73 | 1020.0 |
| 20260503043509 | 51 | 1 | 0.0 | 2.0 | 0.00 | 0.00 | 0.00 | 71 | 1019.9 |
| 20260503043025 | 51 | 345 | 0.0 | 2.0 | 0.00 | 0.00 | 0.00 | 71 | 1019.8 |
| 20260503042505 | 51 | 14 | 0.0 | 2.0 | 0.00 | 0.00 | 0.00 | 71 | 1019.8 |
| 20260503042008 | 52 | 292 | 0.0 | 2.0 | 0.00 | 0.00 | 0.00 | 70 | 1019.8 |
| 20260503041526 | 52 | 274 | 0.0 | 2.0 | 0.00 | 0.00 | 0.00 | 70 | 1019.8 |
| 20260503040507 | 52 | 276 | 0.0 | 4.0 | 0.00 | 0.00 | 0.00 | 69 | 1019.7 |
| 20260503035009 | 53 | 286 | 0.0 | 1.0 | 0.00 | 0.00 | 0.00 | 68 | 1019.6 |
| 20260503034520 | 53 | 286 | 0.0 | 1.0 | 0.00 | 0.00 | 0.00 | 68 | 1019.5 |
| 20260503034008 | 53 | 294 | 0.0 | 1.0 | 0.00 | 0.00 | 0.00 | 67 | 1019.5 |
| 20260503033511 | 53 | 323 | 0.0 | 1.0 | 0.00 | 0.00 | 0.00 | 67 | 1019.5 |
| 20260503033025 | 53 | 288 | 0.0 | 0.0 | 0.00 | 0.00 | 0.00 | 66 | 1019.5 |
| 20260503032509 | 54 | 326 | 0.0 | 0.0 | 0.00 | 0.00 | 0.00 | 66 | 1019.5 |
| 20260503032009 | 54 | 4 | 0.0 | 0.0 | 0.00 | 0.00 | 0.00 | 65 | 1019.5 |
| 20260503031514 | 54 | 45 | 0.0 | 0.0 | 0.00 | 0.00 | 0.00 | 65 | 1019.5 |
| 20260503031008 | 54 | 281 | 0.0 | 0.0 | 0.00 | 0.00 | 0.00 | 64 | 1019.4 |
| 20260503030025 | 55 | 281 | 0.0 | 2.0 | 0.00 | 0.00 | 0.00 | 63 | 1019.3 |
| 20260503025509 | 55 | 347 | 0.0 | 3.0 | 0.00 | 0.00 | 0.00 | 62 | 1019.3 |
| 20260503025008 | 55 | 278 | 0.0 | 5.0 | 0.00 | 0.00 | 0.00 | 62 | 1019.3 |
| 20260503023507 | 56 | 20 | 0.0 | 7.0 | 0.00 | 0.00 | 0.00 | 61 | 1019.1 |
| 20260503023024 | 56 | 274 | 0.0 | 7.0 | 0.00 | 0.00 | 0.00 | 60 | 1018.9 |
| 20260503022504 | 56 | 285 | 1.0 | 6.0 | 0.00 | 0.00 | 0.00 | 60 | 1018.7 |
| 20260503022009 | 56 | 283 | 0.0 | 6.0 | 0.00 | 0.00 | 0.00 | 59 | 1018.6 |
| 20260503021520 | 57 | 307 | 1.0 | 6.0 | 0.00 | 0.00 | 0.00 | 59 | 1018.5 |
| 20260503021004 | 57 | 331 | 0.0 | 8.0 | 0.00 | 0.00 | 0.00 | 58 | 1018.5 |
| 20260503020507 | 56 | 316 | 1.0 | 8.0 | 0.00 | 0.00 | 0.00 | 58 | 1018.4 |
| 20260503015003 | 56 | 338 | 0.0 | 0.0 | 0.00 | 0.00 | 0.00 | 58 | 1017.9 |
| 20260503014515 | 57 | 338 | 0.0 | 0.0 | 0.00 | 0.00 | 0.00 | 56 | 1017.9 |
| 20260503014007 | 57 | 338 | 0.0 | 0.0 | 0.00 | 0.00 | 0.00 | 54 | 1017.7 |
| 20260503013504 | 58 | 338 | 0.0 | 0.0 | 0.00 | 0.00 | 0.00 | 54 | 1017.7 |
| 20260503013012 | 58 | 338 | 0.0 | 0.0 | 0.00 | 0.00 | 0.00 | 54 | 1017.6 |
| 20260503012507 | 59 | 338 | 0.0 | 1.0 | 0.00 | 0.00 | 0.00 | 53 | 1017.5 |
| 20260503012009 | 59 | 338 | 0.0 | 1.0 | 0.00 | 0.00 | 0.00 | 49 | 1017.5 |
| 20260503011510 | 60 | 338 | 0.0 | 6.0 | 0.00 | 0.00 | 0.00 | 49 | 1017.5 |
| 20260503011007 | 60 | 30 | 0.0 | 6.0 | 0.00 | 0.00 | 0.00 | 48 | 1017.3 |
| 20260503010026 | 60 | 27 | 0.0 | 3.0 | 0.00 | 0.00 | 0.00 | 47 | 1017.3 |
| 20260503005504 | 61 | 284 | 0.0 | 3.0 | 0.00 | 0.00 | 0.00 | 46 | 1017.3 |
| 20260503005010 | 61 | 286 | 0.0 | 5.0 | 0.00 | 0.00 | 0.00 | 44 | 1017.2 |
| 20260503004004 | 61 | 291 | 0.0 | 2.0 | 0.00 | 0.00 | 0.00 | 43 | 1017.1 |
| 20260503003504 | 62 | 286 | 0.0 | 3.0 | 0.00 | 0.00 | 0.00 | 43 | 1017.0 |
| 20260503003037 | 62 | 340 | 0.0 | 5.0 | 0.00 | 0.00 | 0.00 | 42 | 1016.9 |
| 20260503002509 | 62 | 14 | 2.0 | 5.0 | 0.00 | 0.00 | 0.00 | 41 | 1016.8 |
| 20260503001540 | 63 | 283 | 0.0 | 6.0 | 0.00 | 0.00 | 0.00 | 42 | 1016.7 |
| 20260503001007 | 63 | 295 | 2.0 | 6.0 | 0.00 | 0.00 | 0.00 | 42 | 1016.6 |
| 20260503000504 | 63 | 325 | 0.0 | 2.0 | 0.00 | 0.00 | 0.00 | 43 | 1016.5 |